Regional Weather Roundup
Issued by NWS

Home | Current Version | Previous Version | Text Only | Print | Product List | Glossary Off
Versions: 1 2 3 4 5 6 7 8 9 10 11 12 13 14 15 16 17 18 19 20 21 22 23 24 25 26 27 28 29 30 31 32 33 34 35 36 37 38 39 40 41 42 43 44 45 46 47 48 49 50

324
ASUS43 KMPX 300801
RWRMN
WEATHER ROUNDUP FOR MINNESOTA
NATIONAL WEATHER SERVICE TWIN CITIES/CHANHASSEN MN
300 AM CDT SUN APR 30 2017


NOTE: "FAIR" INDICATES FEW OR NO CLOUDS BELOW 12,000 FEET WITH NO
SIGNIFICANT WEATHER AND/OR OBSTRUCTIONS TO VISIBILITY. N/A MEANS
CURRENT SKY AND/OR WEATHER CONDITIONS ARE NOT AVAILABLE.

MNZ060>063-068>070-300900-
   Twin Cities Metro

CITY           SKY/WX    TMP DP  RH WIND       PRES   REMARKS
TWIN CITIES    CLOUDY    46  25  43 NE15      30.14S
ST PAUL        CLOUDY    45  26  47 E9        30.15F
CRYSTAL        CLOUDY    44  24  45 NE7       30.13F
LAKEVILLE      CLOUDY    43  28  56 NE10      30.11F
EDEN PRAIRIE   CLOUDY    47  26  44 NE9G21    30.11F
SOUTH ST PAUL  CLOUDY    45  26  47 NE9       30.14S
LAKE ELMO      CLOUDY    43  28  56 NE10      30.15F
$$
MNZ001>005-007-008-013>017-022>024-027-028-300900-
   Northwest Minnesota

CITY           SKY/WX    TMP DP  RH WIND       PRES   REMARKS
BEMIDJI        MOCLDY    38  22  53 CALM      30.21F
HALLOCK        CLOUDY    37  28  70 SE8       30.17F
ROSEAU         CLOUDY    39  28  65 SE6       30.19F
WARROAD        CLOUDY    39  27  60 SE7       30.21S
THIEF RVR FALL CLOUDY    41  25  53 E7        30.20F
CROOKSTON      MOCLDY    39  30  70 SE6       30.18F
FOSSTON        PTCLDY    41  23  48 SE8       30.20F
DETROIT LAKES  CLOUDY    43  27  52 E5        30.19F
MOORHEAD       CLOUDY    37  30  75 E6        30.18F
PARK RAPIDS    MOCLDY    42  19  39 NE5       30.19F
MAHNOMEN       FAIR      41  26  54 SE7       30.18F
$$
MNZ006-009>011-018-025>026-300900-
   North Central Minnesota

CITY           SKY/WX    TMP DP  RH WIND       PRES   REMARKS
BAUDETTE       CLOUDY    38  19  46 S7        30.22F
FLAG ISLAND    PTCLDY    41  27  56 SE7       30.20F
INTL FALLS     CLOUDY    34  21  59 CALM      30.24F
WASKISH        CLOUDY    39  27  60 CALM      30.23S
BIG FORK       CLOUDY    37  18  44 CALM      30.23F
LONGVILLE      CLOUDY    39  19  45 CALM      30.20F
GRAND RAPIDS   CLOUDY    36  17  46 E5        30.23F
CRANE LAKE     CLOUDY    27  25  93 CALM      30.27F
ORR            CLOUDY    34  12  40 CALM      30.22F
COOK           CLOUDY    32  19  59 CALM      30.24F
WALKER         FAIR      40  19  42 E5        30.20F
$$
MNZ012-019>021-037-300900-
   Northeast Minnesota

CITY           SKY/WX    TMP DP  RH WIND       PRES   REMARKS
DULUTH         CLOUDY    37  14  38 E12       30.21F
ELY            CLOUDY    28  23  80 CALM      30.24F
HIBBING        CLOUDY    32  18  56 E5        30.22F WCI  27
EVELETH        CLOUDY    33  11  41 NE5       30.23F WCI  28
DULUTH HARBOR  CLOUDY    39  27  60 NE12      30.25F
TWO HARBORS    CLOUDY    39  18  41 N5        30.22F
SILVER BAY     CLOUDY    32  25  74 CALM      30.23F
GRAND MARAIS     N/A     39  19  44 N5        30.27F
G MARAIS ARPRT CLOUDY    28  18  64 N6        30.25F WCI  22
$$
MNZ029>031-032-039>041-046>048-054>057-064-300900-
   West Central Minnesota

CITY           SKY/WX    TMP DP  RH WIND       PRES   REMARKS
FERGUS FALLS   CLOUDY    46  21  36 E5        30.16S
WHEATON        PTCLDY    41  27  56 NE5       30.16F
MORRIS         MOCLDY    45  25  45 E12       30.12F
ALEXANDRIA     MOCLDY    41  23  48 E12       30.15F
ELBOW LAKE     FAIR      43  23  46 E8        30.15F
WADENA         CLOUDY    39  21  48 E6        30.17F
GLENWOOD       MOCLDY    41  25  52 NE8       30.14F
APPLETON       CLOUDY    43  27  52 NE7       30.12F
BENSON         CLOUDY    45  18  33 E6        30.15S
ORTONVILLE     CLOUDY    43  25  49 E7        30.11F
MADISON        CLOUDY    46  23  39 E12       30.11F
WILLMAR        FAIR      45  27  49 E14       30.13F
$$
MNZ033>034-036-042>043-049>051-058-059-300900-
   Central Minnesota

CITY           SKY/WX    TMP DP  RH WIND       PRES   REMARKS
ST CLOUD       CLOUDY    41  23  48 NE9       30.15F
SAUK CENTRE    FAIR      41  24  51 NE9       30.14F
PAYNESVILLE    CLOUDY    42  25  51 E7        30.14F
AITKIN         MOCLDY    37  18  44 CALM      30.18F
PINE RIVER     CLOUDY    37  25  60 E5        30.22F
BRAINERD       CLOUDY    40  20  44 E5        30.19F
STAPLES        CLOUDY    39  19  45 E5        30.17F
LONG PRAIRIE   FAIR      37  27  65 N10       30.16F
LITTLE FALLS   CLOUDY    41  23  48 E6        30.16F
LITCHFIELD     CLOUDY    45  28  53 NE10      30.13F
BUFFALO        CLOUDY    43  25  49 NE10      30.15F
MAPLE LAKE     CLOUDY    43  28  55 NE6       30.15F
HUTCHINSON     CLOUDY    44  29  55 NE12      30.13F
$$
MNZ037-044-045-052-053-300900-
   East Central Minnesota

CITY           SKY/WX    TMP DP  RH WIND       PRES   REMARKS
PRINCETON      CLOUDY    43  23  45 NE7       30.17S
MORA           CLOUDY    37  21  52 NE5       30.20F
CAMBRIDGE      CLOUDY    43  27  52 NE6       30.15F
RUSH CITY      CLOUDY    40  22  49 NE7       30.17F
MOOSE LAKE     CLOUDY    36  21  55 CALM      30.18F
HINCKLEY       FAIR      36  27  69 NE8       30.19S
CLOQUET        CLOUDY    36  12  38 NE7       30.20F
MCGREGOR       PTCLDY    36  21  55 NE5       30.20F
$$
MNZ071>073-080-081-089-090-097-098-300900-
   Southwest Minnesota

CITY           SKY/WX    TMP DP  RH WIND       PRES   REMARKS
MONTEVIDEO     CLOUDY    43  25  49 E7        30.11F
GRANITE FALLS  CLOUDY    46  28  50 NE9G16    30.11F
CANBY          CLOUDY    44  24  44 NE5       30.11F
MARSHALL       CLOUDY    44  28  53 NE10      30.08F
REDWOOD FALLS  CLOUDY    45  26  47 E7        30.09F
OLIVIA         CLOUDY    43  28  56 NE12      30.09F
PIPESTONE      CLOUDY    45  21  39 E9        30.05F
WINDOM         CLOUDY    45  27  49 NE10      30.06F
WORTHINGTON    CLOUDY    43  27  53 NE15      30.04F
JACKSON        CLOUDY    43  32  65 NE10      30.05F
TRACY          CLOUDY    44  31  60 NE8       30.08F
SLAYTON        CLOUDY    42  27  55 NE9       30.07F
$$
MNZ065>067-074>077-082>085-091>093-300900-
   South Central Minnesota

CITY           SKY/WX    TMP DP  RH WIND       PRES   REMARKS
MANKATO        CLOUDY    46  30  53 NE14      30.07F
NEW ULM        CLOUDY    45  27  49 NE10G17   30.08F
ST JAMES       CLOUDY    45  30  57 NE8       30.07F
FAIRMONT       CLOUDY    45  31  58 NE15      30.04F
GLENCOE        CLOUDY    45  30  57 NE6       30.10F
FARIBAULT      CLOUDY    45  30  57 NE9G16    30.09F
OWATONNA       CLOUDY    45  30  57 NE9G16    30.07F
WASECA         CLOUDY    43  30  61 NE12      30.08F
ALBERT LEA     DRIZZLE   43  30  61 NE16G25   30.03F
$$
MNZ078>079-086>088-094>096-300900-
   Southeast Minnesota

CITY           SKY/WX    TMP DP  RH WIND       PRES   REMARKS
ROCHESTER      LGT RAIN  41  30  65 NE16      30.06F
RED WING       CLOUDY    46  25  42 NE9G16    30.11F
STANTON        CLOUDY    45  31  57 NE12      30.09F
DODGE CENTER   DRIZZLE   43  30  61 E15       30.07F
WINONA         CLOUDY    46  28  49 E13G18    30.09F
AUSTIN         LGT RAIN  41  30  65 NE13      30.03F
PRESTON        CLOUDY    41  28  59 NE12      30.04F
$$
ABBREVIATIONS USED IN REMARKS
   TC - TEMPERATURES IN CELSIUS
  WCI - WIND CHILL INDEX
   HX - HEAT INDEX
  VSB - VISIBILITY
$$




USA.gov is the U.S. government's official web portal to all federal, state and local government web resources and services.